EW7058 Weather Reports


Display with metric or nautical units.
time (UTC)temp
F
wind
direction
speed
MPH
gust
MPH
rain 1hr
in
rain 24hr
in
rain mn
in
humidity
%
barometer
mb
20260510152343 75 66 2.0 7.0 0.00 0.00 0.00 58 1016.1
20260510151843 75 342 3.0 6.0 0.00 0.00 0.00 54 1016.2
20260510151340 75 283 1.0 6.0 0.00 0.00 0.00 59 1016.2
20260510150840 75 289 4.0 6.0 0.00 0.00 0.00 59 1016.1
20260510150340 75 355 2.0 5.0 0.00 0.00 0.00 61 1016.1
20260510145843 74 313 1.0 5.0 0.00 0.00 0.00 56 1016.1
20260510145340 74 311 4.0 5.0 0.00 0.00 0.00 59 1016.2
20260510144840 74 346 2.0 6.0 0.00 0.00 0.00 59 1016.2
20260510144340 74 325 5.0 7.0 0.00 0.00 0.00 59 1016.2
20260510143840 74 325 4.0 9.0 0.00 0.00 0.00 60 1016.2
20260510143340 74 324 1.0 8.0 0.00 0.00 0.00 59 1016.1
20260510142840 74 350 4.0 6.0 0.00 0.00 0.00 60 1016.2
20260510142340 73 311 4.0 6.0 0.00 0.00 0.00 63 1016.2
20260510141843 73 305 3.0 9.0 0.00 0.00 0.00 62 1016.2
20260510141343 73 331 5.0 9.0 0.00 0.00 0.00 64 1016.2
20260510140843 72 299 3.0 7.0 0.00 0.00 0.00 67 1016.2
20260510140340 72 267 2.0 6.0 0.00 0.00 0.00 67 1016.1
20260510135840 71 346 4.0 6.0 0.00 0.00 0.00 68 1016.1
20260510135340 71 340 3.0 4.0 0.00 0.00 0.00 71 1016.2
20260510134843 71 308 3.0 6.0 0.00 0.00 0.00 73 1016.3
20260510134343 70 309 3.0 4.0 0.00 0.00 0.00 75 1016.2
20260510133843 69 307 2.0 4.0 0.00 0.00 0.00 74 1016.2
20260510133340 69 306 3.0 4.0 0.00 0.00 0.00 77 1016.2
20260510132840 68 311 2.0 5.0 0.00 0.00 0.00 78 1016.2
20260510132340 67 341 3.0 4.0 0.00 0.00 0.00 82 1016.2
20260510131840 66 351 2.0 4.0 0.00 0.00 0.00 83 1016.1
20260510131340 66 342 4.0 5.0 0.00 0.00 0.00 86 1016.1
20260510130840 65 301 4.0 4.0 0.00 0.00 0.00 88 1016.2
20260510130340 64 325 1.0 3.0 0.00 0.00 0.00 89 1016.1
20260510125840 63 325 2.0 3.0 0.00 0.00 0.00 89 1016.0
20260510125343 63 325 2.0 3.0 0.00 0.00 0.00 89 1016.1
20260510124843 62 325 1.0 2.0 0.00 0.00 0.00 89 1016.1
20260510124343 62 325 0.0 3.0 0.00 0.00 0.00 89 1016.1
20260510123843 62 326 1.0 3.0 0.00 0.00 0.00 89 1016.0
20260510123340 61 325 2.0 3.0 0.00 0.00 0.00 89 1016.0
20260510122840 61 342 2.0 4.0 0.00 0.00 0.00 89 1015.9
20260510122343 60 342 1.0 3.0 0.00 0.00 0.00 89 1015.8
20260510121840 60 326 1.0 2.0 0.00 0.00 0.00 89 1015.6
20260510121343 59 326 0.0 3.0 0.00 0.00 0.00 89 1015.7
20260510120840 59 209 0.0 0.0 0.00 0.00 0.00 89 1015.5
20260510120343 58 209 0.0 0.0 0.00 0.00 0.00 89 1015.3
20260510115843 58 209 0.0 0.0 0.00 0.00 0.00 89 1015.2
20260510115340 57 209 0.0 0.0 0.00 0.00 0.00 89 1015.1
20260510114843 56 200 0.0 0.0 0.00 0.00 0.00 89 1015.1
20260510114340 56 200 0.0 1.0 0.00 0.00 0.00 89 1015.1
20260510113840 55 186 0.0 0.0 0.00 0.00 0.00 89 1015.0
20260510113343 54 186 0.0 0.0 0.00 0.00 0.00 90 1014.9
20260510112840 54 186 0.0 1.0 0.00 0.00 0.00 89 1014.9
20260510112340 54 235 0.0 0.0 0.00 0.00 0.00 90 1014.9
20260510111840 54 235 0.0 0.0 0.00 0.00 0.00 90 1014.8
20260510111343 53 235 0.0 0.0 0.00 0.00 0.00 89 1014.7
20260510110840 53 165 0.0 0.0 0.00 0.00 0.00 90 1014.6
20260510110340 53 159 0.0 0.0 0.00 0.00 0.00 90 1014.5
20260510105840 53 159 0.0 0.0 0.00 0.00 0.00 90 1014.5
20260510105340 53 159 0.0 0.0 0.00 0.00 0.00 90 1014.4
20260510104843 53 159 0.0 0.0 0.00 0.00 0.00 89 1014.4
20260510104340 53 159 0.0 0.0 0.00 0.00 0.00 89 1014.2
20260510103843 53 159 0.0 0.0 0.00 0.00 0.00 89 1014.1
20260510103340 54 159 0.0 0.0 0.00 0.00 0.00 90 1014.0
20260510102840 54 159 0.0 0.0 0.00 0.00 0.00 89 1014.0
20260510102343 54 159 0.0 0.0 0.00 0.00 0.00 89 1013.9
20260510101843 54 159 0.0 0.0 0.00 0.00 0.00 89 1013.8
20260510101343 54 159 0.0 0.0 0.00 0.00 0.00 89 1013.7
20260510100840 54 159 0.0 0.0 0.00 0.00 0.00 89 1013.7
20260510100343 55 159 0.0 0.0 0.00 0.00 0.00 89 1013.6
20260510095840 55 159 0.0 0.0 0.00 0.00 0.00 89 1013.5
20260510095340 55 159 0.0 0.0 0.00 0.00 0.00 89 1013.5
20260510094840 55 159 0.0 0.0 0.00 0.00 0.00 89 1013.6
20260510094340 55 159 0.0 0.0 0.00 0.00 0.00 89 1013.5
20260510093843 55 159 0.0 0.0 0.00 0.00 0.00 89 1013.5
20260510093343 55 159 0.0 0.0 0.00 0.00 0.00 89 1013.4
20260510092843 56 159 0.0 0.0 0.00 0.00 0.00 89 1013.5
20260510092342 56 159 0.0 0.0 0.00 0.00 0.00 89 1013.5
20260510091842 56 159 0.0 0.0 0.00 0.00 0.00 89 1013.4
20260510091339 56 159 0.0 0.0 0.00 0.00 0.00 89 1013.4
20260510090843 56 159 0.0 0.0 0.00 0.00 0.00 89 1013.4
20260510090340 56 159 0.0 0.0 0.00 0.00 0.00 89 1013.3
20260510085843 56 159 0.0 0.0 0.00 0.00 0.00 89 1013.3
20260510085343 56 159 0.0 0.0 0.00 0.00 0.00 89 1013.2
20260510084843 57 159 0.0 0.0 0.00 0.00 0.00 89 1013.2
20260510084340 57 159 0.0 0.0 0.00 0.00 0.00 89 1013.1
20260510083840 57 159 0.0 0.0 0.00 0.00 0.00 89 1013.1
20260510083343 57 159 0.0 0.0 0.00 0.00 0.00 89 1013.0
20260510082840 57 159 0.0 0.0 0.00 0.00 0.00 89 1013.0
20260510082340 57 159 0.0 0.0 0.00 0.00 0.00 89 1013.0
20260510081839 57 159 0.0 0.0 0.00 0.00 0.00 89 1013.0
20260510081340 57 159 0.0 0.0 0.00 0.00 0.00 89 1012.9
20260510080843 57 159 0.0 0.0 0.00 0.00 0.00 89 1012.8
20260510080339 57 159 0.0 0.0 0.00 0.00 0.00 89 1012.8
20260510075843 58 159 0.0 0.0 0.00 0.00 0.00 89 1012.7
20260510075340 58 159 0.0 0.0 0.00 0.00 0.00 89 1012.8
20260510074843 58 159 0.0 0.0 0.00 0.00 0.00 89 1012.7
20260510074343 58 159 0.0 0.0 0.00 0.00 0.00 89 1012.7
20260510073842 58 159 0.0 0.0 0.00 0.00 0.00 89 1012.7
20260510073342 58 159 0.0 0.0 0.00 0.00 0.00 89 1012.6
20260510072843 58 159 0.0 0.0 0.00 0.00 0.00 89 1012.6
20260510072342 58 159 0.0 0.0 0.00 0.00 0.00 89 1012.7
20260510071839 58 159 0.0 0.0 0.00 0.00 0.00 89 1012.6
20260510071339 59 159 0.0 0.0 0.00 0.00 0.00 89 1012.6
20260510070843 59 159 0.0 0.0 0.00 0.00 0.00 89 1012.6
20260510065839 59 159 0.0 0.0 0.00 0.00 0.00 89 1012.5
20260510065336 59 159 0.0 0.0 0.00 0.00 0.00 89 1012.6
20260510064839 59 159 0.0 0.0 0.00 0.00 0.00 89 1012.6
20260510064339 59 159 0.0 0.0 0.00 0.00 0.00 89 1012.6
20260510063836 59 159 0.0 0.0 0.00 0.00 0.00 89 1012.6
20260510063336 59 159 0.0 0.0 0.00 0.00 0.00 89 1012.6
20260510062839 59 159 0.0 0.0 0.00 0.00 0.00 88 1012.6
20260510062336 59 159 0.0 0.0 0.00 0.00 0.00 88 1012.6
20260510061836 60 159 0.0 0.0 0.00 0.00 0.00 88 1012.7
20260510061339 60 159 0.0 1.0 0.00 0.00 0.00 88 1012.7
20260510060839 60 159 0.0 2.0 0.00 0.00 0.00 88 1012.8
20260510060336 60 159 0.0 0.0 0.00 0.00 0.00 88 1012.9
20260510055836 60 159 0.0 0.0 0.00 0.00 0.00 88 1012.9
20260510055336 60 159 0.0 0.0 0.00 0.00 0.00 88 1012.9
20260510054836 60 159 0.0 0.0 0.00 0.00 0.00 88 1012.9
20260510054336 60 159 0.0 0.0 0.00 0.00 0.00 88 1012.9
20260510053836 61 159 0.0 0.0 0.00 0.00 0.00 88 1012.8
20260510053336 61 159 0.0 0.0 0.00 0.00 0.00 88 1012.8
20260510052839 61 159 0.0 0.0 0.00 0.00 0.00 88 1012.9
20260510052339 61 159 0.0 2.0 0.00 0.00 0.00 88 1013.0
20260510051839 61 159 1.0 2.0 0.00 0.00 0.00 88 1013.1
20260510051336 61 159 1.0 1.0 0.00 0.00 0.00 87 1013.0
20260510050839 62 159 0.0 1.0 0.00 0.00 0.00 87 1013.0
20260510050339 62 159 0.0 2.0 0.00 0.00 0.00 87 1013.0
20260510045836 62 159 0.0 2.0 0.00 0.00 0.00 87 1012.9
20260510045339 62 159 2.0 4.0 0.00 0.00 0.00 87 1012.9
20260510044839 62 159 2.0 4.0 0.00 0.00 0.00 87 1013.0
20260510044336 62 159 1.0 2.0 0.00 0.00 0.00 87 1013.0
20260510043836 63 159 1.0 1.0 0.00 0.00 0.00 87 1013.1
20260510043339 63 159 0.0 0.0 0.00 0.00 0.00 87 1013.1
20260510042836 63 159 0.0 0.0 0.00 0.00 0.00 87 1013.1
20260510042336 63 159 0.0 4.0 0.00 0.00 0.00 86 1013.1
20260510041836 63 159 1.0 6.0 0.00 0.00 0.00 86 1013.1
20260510041336 63 189 3.0 4.0 0.00 0.00 0.00 86 1013.1
20260510040836 63 194 0.0 1.0 0.00 0.00 0.00 86 1013.0
20260510040339 63 194 0.0 2.0 0.00 0.00 0.00 86 1013.0
20260510035839 64 194 0.0 0.0 0.00 0.00 0.00 86 1013.1
20260510035336 64 194 0.0 3.0 0.00 0.00 0.00 86 1013.1
20260510034836 64 194 1.0 2.0 0.00 0.00 0.00 86 1012.9
20260510034339 64 194 0.0 3.0 0.00 0.00 0.00 86 1013.0
20260510033836 64 194 0.0 3.0 0.00 0.00 0.00 85 1013.1
20260510033336 64 194 3.0 3.0 0.00 0.00 0.00 85 1013.0
20260510032839 64 194 1.0 2.0 0.00 0.00 0.00 85 1013.0
20260510032336 64 194 0.0 4.0 0.00 0.00 0.00 85 1013.1
20260510031836 65 196 1.0 3.0 0.00 0.00 0.00 85 1013.1
20260510031339 65 196 0.0 0.0 0.00 0.00 0.00 85 1013.1
20260510030839 65 196 0.0 2.0 0.00 0.00 0.00 85 1013.0
20260510030336 65 196 0.0 3.0 0.00 0.00 0.00 85 1013.0
20260510025839 65 196 3.0 4.0 0.00 0.00 0.00 85 1013.0
20260510025339 65 196 0.0 4.0 0.00 0.00 0.00 84 1013.0
20260510024836 65 196 2.0 4.0 0.00 0.00 0.00 84 1013.0
20260510024336 65 195 3.0 4.0 0.00 0.00 0.00 84 1012.9
20260510023836 65 196 3.0 6.0 0.00 0.00 0.00 84 1012.9
20260510023336 65 194 1.0 4.0 0.00 0.00 0.00 84 1012.9
20260510022836 65 194 0.0 3.0 0.00 0.00 0.00 83 1012.9
20260510022339 65 194 2.0 6.0 0.00 0.00 0.00 83 1012.8
20260510021836 66 189 1.0 6.0 0.00 0.00 0.00 83 1012.7
20260510021339 66 190 2.0 6.0 0.00 0.00 0.00 83 1012.6
20260510020839 66 191 4.0 4.0 0.00 0.00 0.00 82 1012.6
20260510020336 66 192 4.0 6.0 0.00 0.00 0.00 82 1012.6
20260510015836 66 193 5.0 5.0 0.00 0.00 0.00 82 1012.5
20260510015336 66 193 4.0 5.0 0.00 0.00 0.00 81 1012.4
20260510014836 67 191 1.0 4.0 0.00 0.00 0.00 81 1012.4
20260510014336 67 191 1.0 3.0 0.00 0.00 0.00 81 1012.3
20260510013839 67 191 2.0 4.0 0.00 0.00 0.00 81 1012.2
20260510013339 67 191 2.0 6.0 0.00 0.00 0.00 81 1012.1
20260510012839 67 190 6.0 6.0 0.00 0.00 0.00 81 1012.1
20260510012336 67 192 5.0 6.0 0.00 0.00 0.00 80 1012.1
20260510011839 67 184 2.0 6.0 0.00 0.00 0.00 80 1011.9
20260510011339 68 192 2.0 5.0 0.00 0.00 0.00 79 1011.7
20260510010839 68 194 2.0 5.0 0.00 0.00 0.00 79 1011.7
20260510010339 68 190 0.0 0.0 0.00 0.00 0.00 78 1011.6
20260510005836 68 190 0.0 4.0 0.00 0.00 0.00 78 1011.5
20260510005336 68 190 2.0 3.0 0.00 0.00 0.00 78 1011.4
20260510004839 69 190 1.0 4.0 0.00 0.00 0.00 77 1011.4
20260510004336 69 193 2.0 5.0 0.00 0.00 0.00 77 1011.3
20260510003839 69 197 3.0 4.0 0.00 0.00 0.00 77 1011.2
20260510003339 69 194 2.0 4.0 0.00 0.00 0.00 76 1011.1
20260510002839 69 202 2.0 5.0 0.00 0.00 0.00 76 1011.0
20260510002339 70 190 1.0 7.0 0.00 0.00 0.00 75 1011.0
20260510001839 70 178 1.0 3.0 0.00 0.00 0.00 75 1011.1
20260510001339 70 178 2.0 4.0 0.00 0.00 0.00 75 1011.0
20260510000836 70 176 1.0 7.0 0.00 0.00 0.00 75 1010.9
20260510000341 70 173 1.0 8.0 0.00 0.00 0.00 75 1010.8
20260509235836 70 163 7.0 11.0 0.00 0.00 0.00 74 1010.6
20260509235339 71 185 5.0 9.0 0.00 0.00 0.00 74 1010.6
20260509234839 71 184 7.0 8.0 0.00 0.00 0.00 73 1010.7
20260509234336 71 153 2.0 8.0 0.00 0.00 0.00 73 1010.6
20260509233839 71 182 4.0 6.0 0.00 0.00 0.00 73 1010.7
20260509233336 71 205 3.0 9.0 0.00 0.00 0.00 73 1010.7
20260509232839 72 194 10.0 14.0 0.00 0.00 0.00 72 1010.6
20260509232339 72 179 8.0 9.0 0.00 0.00 0.00 72 1010.4
20260509231839 72 171 1.0 9.0 0.00 0.00 0.00 71 1010.3
20260509231339 73 190 5.0 10.0 0.00 0.00 0.00 70 1010.1
20260509230836 73 189 1.0 13.0 0.00 0.00 0.00 70 1010.2
20260509230336 73 223 4.0 9.0 0.00 0.00 0.00 69 1010.2
20260509225839 73 188 4.0 13.0 0.00 0.00 0.00 69 1010.1
20260509225336 73 173 10.0 14.0 0.00 0.00 0.00 69 1010.1
20260509224839 74 155 11.0 15.0 0.00 0.00 0.00 68 1010.0
20260509224339 74 188 5.0 12.0 0.00 0.00 0.00 67 1009.8
20260509223839 74 192 6.0 13.0 0.00 0.00 0.00 68 1009.8
20260509223339 74 213 8.0 11.0 0.00 0.00 0.00 67 1009.8
20260509222836 74 186 6.0 9.0 0.00 0.00 0.00 66 1009.8
20260509222336 74 180 7.0 11.0 0.00 0.00 0.00 67 1009.8
20260509221839 74 186 9.0 11.0 0.00 0.00 0.00 65 1009.8
20260509221339 75 192 7.0 10.0 0.00 0.00 0.00 65 1009.7
20260509220839 75 196 7.0 11.0 0.00 0.00 0.00 64 1009.6
20260509220336 75 200 4.0 14.0 0.00 0.00 0.00 65 1009.7
20260509215836 76 161 9.0 14.0 0.00 0.00 0.00 64 1009.7
20260509215336 76 156 5.0 13.0 0.00 0.00 0.00 63 1009.7
20260509214836 77 188 11.0 12.0 0.00 0.00 0.00 62 1009.8
20260509214336 76 198 9.0 13.0 0.00 0.00 0.00 65 1009.6
20260509213836 76 272 11.0 11.0 0.00 0.00 0.00 63 1009.7
20260509213336 76 233 5.0 9.0 0.00 0.00 0.00 64 1009.7
20260509212836 76 172 5.0 12.0 0.00 0.00 0.00 65 1009.6
20260509212339 76 249 1.0 11.0 0.00 0.00 0.00 64 1009.6
20260509211836 76 203 3.0 11.0 0.00 0.00 0.00 64 1009.6
20260509211339 76 164 4.0 13.0 0.00 0.00 0.00 64 1009.7
20260509210836 76 165 5.0 13.0 0.00 0.00 0.00 64 1009.6
20260509210339 77 247 8.0 14.0 0.00 0.00 0.00 62 1009.5
20260509205836 77 178 7.0 13.0 0.00 0.00 0.00 65 1009.4
20260509205336 76 192 8.0 12.0 0.00 0.00 0.00 65 1009.4
20260509204839 76 168 5.0 13.0 0.00 0.00 0.00 65 1009.3
20260509204336 76 300 3.0 12.0 0.00 0.00 0.00 68 1009.2
20260509203839 75 200 3.0 10.0 0.00 0.00 0.00 66 1009.2
20260509203336 75 153 4.0 12.0 0.00 0.00 0.00 66 1009.3
20260509202836 75 151 9.0 15.0 0.00 0.00 0.00 65 1009.5
20260509202336 75 194 7.0 14.0 0.00 0.00 0.00 65 1009.5
20260509201839 75 275 11.0 13.0 0.00 0.00 0.00 67 1009.5
20260509201336 75 182 8.0 12.0 0.00 0.00 0.00 68 1009.5
20260509200839 75 244 4.0 11.0 0.00 0.00 0.00 70 1009.5
20260509200336 74 198 9.0 14.0 0.00 0.00 0.00 69 1009.7
20260509195836 74 208 9.0 13.0 0.00 0.00 0.00 67 1009.6
20260509195336 75 200 5.0 14.0 0.00 0.00 0.00 67 1009.6
20260509194836 75 142 5.0 15.0 0.00 0.00 0.00 67 1009.7
20260509194339 75 207 6.0 10.0 0.00 0.00 0.00 71 1009.6
20260509193836 75 202 7.0 13.0 0.00 0.00 0.00 69 1009.7
20260509193339 75 193 5.0 11.0 0.00 0.00 0.00 69 1009.8
20260509192836 75 214 9.0 10.0 0.00 0.00 0.00 69 1009.8
20260509192336 75 215 9.0 12.0 0.00 0.00 0.00 70 1009.9
20260509191839 74 150 9.0 10.0 0.00 0.00 0.00 73 1010.1
20260509191336 73 208 6.0 12.0 0.00 0.00 0.00 70 1010.1
20260509190839 73 242 8.0 13.0 0.00 0.00 0.00 73 1010.1
20260509190339 73 223 8.0 14.0 0.00 0.00 0.00 74 1010.0
20260509185839 73 171 6.0 16.0 0.00 0.00 0.00 69 1010.0
20260509185336 73 180 13.0 14.0 0.00 0.00 0.00 71 1010.0
20260509184836 73 196 7.0 14.0 0.00 0.00 0.00 70 1010.0
20260509184339 73 140 5.0 16.0 0.00 0.00 0.00 72 1010.1
20260509183836 74 244 7.0 17.0 0.00 0.00 0.00 68 1010.0
20260509183336 73 169 14.0 14.0 0.00 0.00 0.00 71 1010.0
20260509182839 73 215 5.0 12.0 0.00 0.00 0.00 68 1010.1
20260509182339 74 229 8.0 14.0 0.00 0.00 0.00 70 1010.2
20260509181839 74 203 9.0 17.0 0.00 0.00 0.00 66 1010.3
20260509181339 74 159 9.0 15.0 0.00 0.00 0.00 70 1010.4
20260509180839 73 140 7.0 10.0 0.00 0.00 0.00 70 1010.4
20260509180339 73 196 6.0 12.0 0.00 0.00 0.00 70 1010.5
20260509175839 73 237 5.0 12.0 0.00 0.00 0.00 69 1010.6
20260509175336 72 178 11.0 11.0 0.00 0.00 0.00 71 1010.6
20260509174836 72 217 5.0 11.0 0.00 0.00 0.00 69 1010.6
20260509174339 73 173 6.0 15.0 0.00 0.00 0.00 69 1010.6
20260509173836 73 270 4.0 14.0 0.00 0.00 0.00 71 1010.6
20260509173335 73 167 6.0 20.0 0.00 0.00 0.00 70 1010.5
20260509172835 72 194 5.0 17.0 0.00 0.00 0.00 68 1010.5
20260509172335 73 165 16.0 16.0 0.00 0.00 0.00 68 1010.6
20260509171838 73 257 7.0 13.0 0.00 0.00 0.00 69 1010.7
20260509171338 72 167 5.0 11.0 0.00 0.00 0.00 72 1010.7
20260509170838 72 221 6.0 10.0 0.00 0.00 0.00 69 1010.8
20260509170335 72 232 3.0 12.0 0.00 0.00 0.00 69 1010.8
20260509165835 72 169 7.0 9.0 0.00 0.00 0.00 70 1010.9
20260509165335 72 229 5.0 12.0 0.00 0.00 0.00 69 1010.9
20260509164838 72 171 4.0 13.0 0.00 0.00 0.00 68 1011.0
20260509164338 73 163 11.0 17.0 0.00 0.00 0.00 70 1011.1
20260509163835 72 159 7.0 12.0 0.00 0.00 0.00 69 1011.3
20260509163338 72 184 9.0 15.0 0.00 0.00 0.00 71 1011.2
20260509162838 72 173 8.0 15.0 0.00 0.00 0.00 71 1011.2
20260509162338 71 157 5.0 10.0 0.00 0.00 0.00 71 1011.4
20260509161838 71 219 2.0 12.0 0.00 0.00 0.00 73 1011.3
20260509161335 71 162 11.0 15.0 0.00 0.00 0.00 73 1011.5
20260509160838 70 209 4.0 18.0 0.00 0.00 0.00 73 1011.5
20260509160335 70 199 6.0 16.0 0.00 0.00 0.00 75 1011.6
20260509155838 69 196 3.0 10.0 0.00 0.00 0.00 74 1011.6
20260509155338 69 180 4.0 10.0 0.00 0.00 0.00 74 1011.6
20260509154835 70 238 9.0 9.0 0.00 0.00 0.00 75 1011.5
20260509154335 69 238 3.0 10.0 0.00 0.00 0.00 76 1011.5
20260509153838 69 202 4.0 10.0 0.00 0.00 0.00 75 1011.6
20260509153338 69 224 10.0 11.0 0.00 0.00 0.00 76 1011.5
20260509152835 69 149 3.0 10.0 0.00 0.00 0.00 77 1011.4